YUNHAI-2 3 (43911 NORAD) Tracking and Keplerian Element Data

This shows tracking and keplerian element data for the satellite.

Feedback or suggestion? Click here.




ElementValue
Catalog43911
NameYUNHAI-2 3
Epoch Orbit445
Epoch Day27.77552083
Epoch Year2019
RAAN42.0241
Inclination50.015
Eccentricity0.0008575
Argument of Perigee27.2012
Mean Anonmoly324.6842
Mean Motion15.15893429
Decay Rate3.21E-06
L11 43911U 18112C 19027.77552083 .00000321 00000-0 32466-4 0 9998
L22 43911 50.0150 42.0241 0008575 27.2012 324.6842 15.15893429 4452

Live tracking and technical data element details for YUNHAI-2 3 (NORAD 43911). YUNHAI-2 3 can be tracked NOW for your location showing map with azimuth and elevation plus other details from your city location.

Track the satellite on the map from your city or location and see movement details for azimuth, elevation, latitude, longitude, range, height, and movement on the map or in text.







IsCatalogInMostPopularTable: catalog: 43911, numindb: 111
Update: records affected: 1



GetName: 43911 YUNHAI-2 3

Hit Count: updated at: Thu, 23 May 2019 15:36:59 GMT